Theta_e
341 343 342 340 337 334 338 338 332 332 335 330 330 336 340 337 327 329 353 355 336 335 342 342 347 345 339 335 331 330 332 333 334 335 336 336 336 336 335 333 332 332 331 332 332 332 330 329 327 326 325 326 326 324 321 320 320 320 320 320 322 322 321 322 322 322 322 322 322 322 322 322 322 321 321 323 325 326 327 326 326 325 325 326 326 326 326
334 337 338 339 337 333 332 335 335 334 335 332 331 339 343 336 330 335 342 342 340 339 339 337 332 330 332 332 331 331 331 332 334 334 335 336 336 335 335 333 331 331 331 332 332 331 330 328 327 325 325 327 327 324 321 320 320 320 320 320 321 321 321 322 323 322 322 323 322 322 322 322 323 324 324 325 326 326 327 327 327 326 325 325 326 326 326
327 335 338 336 335 333 330 333 340 338 333 332 331 335 337 333 334 339 335 333 340 336 329 328 326 326 332 331 329 331 331 332 334 334 335 335 335 335 334 332 331 331 331 332 332 331 329 327 327 326 327 327 325 323 321 320 320 320 320 320 320 321 321 321 322 323 324 323 323 322 322 323 325 326 326 327 327 326 327 327 326 326 325 325 325 326 326
326 331 333 335 338 334 328 331 341 341 334 334 333 333 338 336 335 339 332 330 342 341 329 327 329 328 330 329 329 330 330 332 334 334 335 335 335 334 332 332 332 330 330 331 330 329 327 326 327 327 327 327 324 322 320 320 321 321 320 321 321 322 322 322 323 324 324 324 322 321 322 323 324 325 325 327 327 327 327 326 325 325 325 324 325 326 326
330 333 334 338 337 329 328 336 342 341 337 337 333 332 340 341 334 333 332 332 344 346 335 336 339 332 328 329 331 330 330 332 333 334 335 334 333 332 331 331 332 330 329 329 328 327 326 326 327 327 326 324 323 322 321 322 323 323 323 322 322 323 324 325 325 326 325 325 323 322 322 322 322 323 323 325 326 326 326 325 324 324 324 324 325 325 326
332 337 336 334 328 324 334 348 350 341 336 337 336 333 340 342 337 336 337 339 348 347 340 344 345 337 332 330 330 331 332 332 333 334 334 332 331 332 331 331 330 329 329 328 327 327 326 326 327 327 324 323 323 323 322 323 324 324 325 325 324 324 325 326 327 327 326 326 323 321 320 319 319 320 321 323 324 325 324 324 324 325 324 325 325 325 326
333 334 332 327 328 335 346 352 348 338 331 334 336 337 342 343 338 339 339 339 343 342 335 334 332 331 331 330 330 332 331 331 332 332 332 332 332 332 332 331 331 329 328 327 327 326 325 326 327 325 322 323 324 323 322 323 324 323 325 326 326 326 326 326 327 328 327 326 322 320 319 318 319 320 321 322 323 324 323 323 324 324 324 325 324 324 324
333 330 330 330 336 344 346 343 340 335 330 330 330 333 346 352 344 341 341 339 337 331 327 329 329 329 330 330 330 331 331 332 331 331 332 332 332 332 332 331 330 330 328 327 327 326 325 327 326 324 322 324 324 324 324 324 323 323 324 326 327 327 327 327 328 328 326 324 321 320 319 318 319 321 321 322 323 324 323 324 324 324 324 325 323 322 322
335 337 333 333 335 336 337 338 337 333 332 336 335 331 344 360 349 338 343 349 342 330 327 330 330 329 331 334 333 331 331 332 332 332 333 332 331 331 331 330 331 330 328 328 327 326 326 328 326 324 324 325 325 325 325 324 324 324 324 325 328 329 328 327 328 327 325 323 321 319 319 319 320 320 320 322 323 324 323 324 324 324 324 324 323 322 323
339 339 332 330 330 331 340 346 340 330 326 333 336 332 341 358 343 328 338 351 344 332 327 328 330 331 338 346 342 333 331 332 332 333 332 332 332 331 331 331 331 330 328 328 328 327 327 328 326 324 326 327 326 326 326 325 325 325 324 324 327 329 328 327 326 325 324 323 321 319 319 319 319 320 321 323 323 323 323 323 323 324 324 323 322 323 323
334 331 328 331 330 329 342 353 341 327 322 327 332 330 340 351 335 323 332 339 333 329 328 328 332 337 348 357 345 332 332 333 333 332 332 331 331 331 331 331 330 329 328 328 327 328 327 327 325 325 327 327 327 327 326 325 325 325 325 324 325 326 327 327 325 322 323 323 320 319 319 319 319 319 322 323 323 322 322 321 322 324 323 322 322 323 323
334 331 329 332 330 329 342 350 336 324 323 327 328 329 339 344 329 324 331 331 328 330 328 328 335 342 350 352 339 330 333 333 332 333 332 331 331 330 330 330 329 329 328 328 328 328 327 327 326 326 328 328 328 327 326 325 325 325 324 323 323 324 325 326 324 322 321 321 320 319 320 320 319 319 321 322 321 320 320 319 321 322 322 322 322 323 323
334 331 328 328 331 336 340 338 328 323 325 327 327 331 340 338 328 328 332 330 330 331 329 330 335 337 337 336 332 332 334 332 331 332 330 330 331 329 329 329 329 329 329 329 329 328 327 327 326 327 328 328 328 327 326 325 325 325 324 323 323 323 324 324 323 322 322 323 322 321 320 320 319 318 320 321 320 319 319 320 320 321 321 322 322 323 323
332 335 331 327 330 336 332 326 325 323 325 330 332 333 332 328 328 332 332 330 331 331 330 332 334 332 330 330 330 332 332 330 331 330 329 331 330 329 330 330 330 331 331 330 329 328 328 327 327 328 329 328 328 328 326 326 325 325 324 323 323 324 324 323 323 323 325 326 323 321 321 321 320 319 319 320 319 319 320 320 320 321 321 322 322 322 323
329 329 329 326 332 334 326 324 328 327 328 334 334 329 326 328 330 332 331 331 332 331 331 332 332 331 330 330 329 330 330 330 330 330 330 330 330 330 330 329 329 331 330 330 330 329 328 327 327 328 328 328 328 327 327 326 325 325 324 323 323 324 324 324 324 324 326 325 322 321 321 321 320 320 319 319 320 320 320 320 320 321 320 321 322 322 322
328 329 332 333 333 330 325 326 330 330 329 331 329 327 329 330 330 331 332 332 331 331 332 332 331 330 330 329 330 330 329 329 329 329 330 329 329 329 328 328 329 330 329 329 330 329 328 327 327 328 329 328 327 327 327 326 325 325 324 324 324 324 324 324 324 325 326 325 322 321 321 320 320 320 320 319 320 320 321 320 321 321 320 320 321 321 321
333 335 337 335 328 324 324 326 328 327 326 326 328 329 331 330 331 332 332 332 332 332 332 332 331 330 329 330 329 329 328 328 328 328 328 327 328 328 327 328 329 329 329 330 330 329 329 328 328 328 328 327 327 327 326 326 326 325 324 324 325 324 324 324 324 324 325 324 321 321 321 320 321 320 320 320 320 320 320 321 321 321 321 321 320 321 321
332 327 328 328 326 325 325 325 325 326 327 328 329 330 330 330 331 332 331 331 332 331 330 331 330 329 329 329 329 328 328 327 327 327 327 327 327 327 327 327 328 328 329 330 330 330 329 327 328 328 327 326 327 326 326 326 326 325 324 323 324 324 324 323 323 324 325 323 321 321 321 321 321 321 321 321 321 321 321 321 321 321 322 321 321 321 321
331 330 334 331 326 325 325 325 327 327 328 328 329 330 330 331 330 330 330 330 330 330 330 330 330 329 329 328 327 326 325 325 325 326 325 325 325 326 326 326 327 328 328 329 330 330 328 327 327 326 324 325 326 326 326 327 326 325 324 323 324 323 323 323 322 324 324 323 321 321 321 321 321 321 321 321 321 321 321 321 321 322 322 322 321 321 321
330 332 333 326 323 324 325 325 328 329 327 329 329 328 329 329 328 327 328 329 329 330 329 328 329 328 326 325 325 325 323 323 324 323 324 324 324 325 326 326 326 327 327 328 329 328 327 327 325 323 323 324 324 325 326 326 326 325 324 324 324 323 323 322 322 324 324 322 321 321 321 321 321 320 321 321 321 321 321 321 322 322 322 322 322 321 321
333 332 328 324 324 327 326 326 328 329 328 328 328 326 328 328 326 326 327 327 328 327 327 327 326 325 324 324 324 324 323 323 324 323 324 324 324 324 325 325 326 326 327 327 327 327 326 325 323 323 323 324 324 326 326 325 325 324 324 324 323 323 322 322 323 324 323 322 321 321 321 321 321 321 321 321 321 321 321 321 322 322 322 322 322 321 321
335 335 330 328 329 332 329 327 327 329 328 328 326 326 327 326 326 327 326 326 326 325 325 325 324 323 324 324 323 324 324 323 324 323 323 323 324 325 325 325 325 325 325 326 326 325 324 323 323 323 324 324 325 326 325 324 323 323 323 323 323 322 322 323 324 324 323 322 321 321 321 321 321 321 321 321 321 321 321 322 322 322 322 322 322 321 320
327 327 324 324 327 329 328 325 326 327 327 327 327 326 326 325 325 326 326 325 324 324 324 324 324 324 324 324 323 324 323 322 322 322 322 323 324 324 324 325 325 324 324 324 324 324 323 323 323 324 325 325 326 325 324 324 323 323 323 322 322 322 322 323 324 324 323 323 322 321 321 321 321 321 321 321 321 321 321 322 322 322 322 322 321 320 320
321 320 320 321 322 325 324 324 326 326 325 326 327 326 325 325 325 324 325 325 324 324 324 324 323 323 323 322 322 322 321 321 322 322 323 323 324 324 324 325 324 324 323 323 323 322 322 322 323 324 326 326 326 325 324 323 323 323 322 321 321 322 322 322 323 323 322 322 322 321 321 321 321 321 321 321 322 322 322 321 322 322 322 321 321 320 320
320 320 321 321 321 323 324 324 325 325 325 325 325 325 324 325 324 324 324 324 324 323 323 322 322 322 322 322 322 322 322 323 323 323 324 324 323 324 324 323 323 323 323 322 322 322 322 322 322 324 325 326 325 324 323 323 322 322 321 321 321 322 322 323 323 323 323 323 321 321 321 322 321 321 321 321 322 322 322 322 322 322 321 321 320 320 321
320 320 321 323 322 323 324 325 325 325 325 324 324 324 324 324 324 324 323 323 323 322 322 322 322 322 323 323 323 324 324 324 323 323 323 322 322 323 323 323 323 323 322 322 322 322 322 322 322 322 324 324 324 324 323 323 322 321 321 321 321 322 323 323 324 325 325 324 322 322 322 322 321 321 321 322 322 322 321 322 322 322 321 321 321 320 320
317 317 319 322 323 323 324 325 324 324 324 324 324 324 324 323 323 323 322 322 323 322 323 324 323 323 323 323 323 323 323 323 323 323 322 322 323 322 322 322 322 322 322 322 322 321 322 322 322 322 323 323 323 323 322 321 321 321 321 321 321 322 322 323 323 324 324 324 323 323 322 322 321 321 322 322 321 321 321 321 321 321 321 320 320 320 320
315 315 316 318 320 321 323 323 323 323 324 324 323 323 323 322 322 322 323 323 323 323 323 324 323 323 324 323 323 323 323 322 322 323 322 322 323 322 322 322 322 322 322 323 322 322 322 322 322 322 322 322 321 322 321 321 321 322 322 322 322 323 322 322 322 323 323 323 323 322 321 321 322 322 322 321 321 320 321 320 320 320 320 319 319 319 319
316 315 315 315 316 317 320 321 322 322 323 322 322 322 322 322 323 323 323 323 323 323 323 323 324 324 324 324 323 323 322 322 322 323 322 322 322 322 322 322 322 322 322 322 322 322 321 322 322 321 321 321 321 321 321 321 321 321 322 322 322 321 322 321 321 322 323 322 321 321 321 321 322 322 321 320 320 320 320 319 319 319 318 318 319 318 318
317 317 317 316 316 317 319 320 321 322 322 322 322 322 322 323 323 323 323 323 323 323 323 323 324 324 324 323 323 323 323 323 323 322 322 322 322 322 322 322 323 323 322 321 321 321 320 321 321 321 321 322 322 322 322 321 320 319 319 319 319 319 320 320 320 321 322 321 321 320 321 322 322 321 321 320 319 319 319 318 317 316 316 316 317 317 317
317 317 317 317 317 318 319 320 320 321 321 322 322 322 323 323 323 323 324 323 323 324 324 324 324 324 323 323 323 323 323 322 321 321 322 322 322 322 322 322 322 322 321 321 321 321 321 321 321 321 322 322 322 322 321 319 318 318 318 318 318 319 320 320 321 321 320 320 321 321 322 322 322 321 320 319 319 319 318 317 315 314 314 315 315 315 316
316 316 317 317 318 318 319 319 320 321 321 322 322 322 323 323 323 323 324 323 324 324 323 323 323 322 322 322 321 321 320 320 320 320 321 322 322 322 322 323 323 323 322 321 321 321 321 321 321 322 322 322 322 322 321 320 320 320 320 320 321 321 322 322 322 321 321 321 321 321 322 321 321 320 319 319 319 318 317 316 315 313 312 313 314 314 314
316 316 317 318 318 319 320 320 320 320 321 322 322 323 323 324 324 324 323 323 323 323 322 322 321 320 319 318 318 317 318 318 319 321 322 322 323 323 323 323 323 323 322 321 321 321 321 321 321 322 322 321 321 321 321 321 321 321 321 321 322 322 322 322 322 322 322 322 321 321 321 321 320 319 318 318 318 317 316 315 314 312 310 311 312 313 313
316 317 317 318 318 318 319 319 320 321 323 323 323 324 324 324 324 324 323 323 322 321 320 320 319 318 318 317 317 317 318 320 320 322 322 322 322 322 322 322 322 322 322 322 321 321 321 321 321 321 321 320 320 321 321 320 320 320 321 321 321 322 322 321 322 322 321 321 321 320 320 320 319 319 319 318 317 316 314 313 311 310 308 309 310 310 310
317 316 317 317 318 318 319 319 320 321 322 323 324 324 324 323 323 323 322 321 320 320 319 318 318 317 317 317 317 317 319 320 320 320 321 321 321 321 321 321 321 321 321 321 320 320 320 320 319 319 319 318 318 318 319 320 319 320 320 320 320 321 321 321 321 321 320 320 320 320 320 320 319 317 316 315 314 313 312 310 309 308 308 307 307 308 309
318 317 316 317 317 318 319 319 321 321 322 324 323 323 323 322 322 321 320 320 319 318 318 318 318 318 318 317 317 317 318 319 320 320 320 320 320 321 321 321 321 321 320 319 319 318 318 318 317 317 317 316 316 317 318 319 319 320 321 321 321 321 321 320 320 320 319 319 319 319 318 316 314 312 310 309 308 309 309 309 308 308 307 307 306 307 307
319 319 317 317 317 318 318 320 321 322 322 323 322 322 321 321 320 320 320 319 318 318 318 319 319 318 317 317 317 317 319 319 319 319 319 319 319 319 320 320 320 319 318 318 318 318 317 317 317 316 316 315 316 317 318 318 319 320 321 320 320 321 321 320 319 319 319 317 316 314 312 309 308 307 306 305 305 306 307 308 308 308 307 306 306 306 306
319 318 318 317 317 318 319 320 321 322 322 322 322 321 321 321 320 319 319 318 319 319 319 319 319 318 317 317 317 317 318 318 318 318 318 318 318 319 319 319 319 318 317 317 316 316 315 315 315 315 314 316 318 319 319 319 319 320 319 319 319 320 319 319 317 316 314 312 310 308 307 305 304 304 304 304 304 305 305 306 306 306 306 305 304 304 304
319 318 318 318 318 318 320 321 322 322 322 322 321 321 321 321 320 319 319 319 319 319 319 318 318 317 316 316 316 317 317 317 317 318 318 318 318 318 318 318 317 316 315 314 312 311 311 311 312 313 314 316 319 319 318 318 317 317 317 316 316 316 315 314 313 311 309 308 307 306 305 303 302 301 301 302 302 303 303 303 303 304 303 303 302 302 302
319 319 319 319 319 320 321 322 322 322 322 322 322 322 321 320 320 319 319 319 319 319 318 318 317 316 316 316 316 316 317 317 317 318 318 318 318 317 317 316 315 314 312 310 309 308 309 310 312 313 315 317 317 317 316 315 314 313 313 312 312 311 311 310 309 308 308 307 306 305 303 301 300 300 300 300 300 300 300 301 301 301 301 300 300 300 300
319 319 320 320 320 320 321 322 322 322 321 321 321 321 320 320 320 320 319 319 319 318 317 317 317 316 316 316 316 316 317 318 317 318 318 318 317 317 316 315 313 311 310 309 309 309 310 312 313 314 314 314 314 313 313 312 311 311 310 310 309 309 309 308 308 307 307 306 304 302 300 299 299 299 298 298 297 298 298 298 299 299 298 298 298 298 297
319 319 320 320 319 319 320 321 321 321 321 320 320 320 320 319 319 319 319 318 318 317 317 317 316 316 316 316 316 316 317 317 317 317 317 316 316 316 315 313 312 310 309 308 308 308 308 309 310 311 310 310 310 310 310 309 309 309 309 308 308 308 307 307 306 306 305 303 302 300 299 299 298 298 297 296 296 296 296 296 297 297 297 296 296 296 296
319 319 319 319 319 318 319 320 320 319 319 318 318 319 319 318 318 318 317 317 317 317 317 317 316 316 316 316 316 316 316 317 317 316 316 315 314 314 313 313 312 310 308 308 308 307 307 307 307 307 307 308 308 307 307 306 306 305 305 305 305 305 305 304 304 303 302 301 300 299 299 298 298 297 296 296 296 296 296 296 296 295 296 296 296 295 295
319 319 319 319 319 318 318 318 319 319 319 317 317 318 318 318 317 317 317 317 317 317 317 316 316 316 316 316 316 315 315 316 316 316 316 315 314 313 313 312 311 310 309 308 308 307 306 306 305 304 304 305 304 304 303 302 301 301 301 301 302 302 302 302 302 301 300 299 299 298 298 298 297 297 296 296 296 296 296 296 295 295 295 295 295 295 295
319 319 319 319 319 319 319 319 319 319 319 318 318 317 317 317 316 316 317 317 317 317 317 317 317 317 317 317 316 315 315 316 315 315 315 314 314 313 312 311 310 309 308 307 306 305 305 304 304 303 303 302 302 301 301 300 300 299 300 300 300 300 301 301 300 299 299 298 298 298 298 297 297 297 296 296 296 295 295 295 295 295 295 294 294 294 294
319 319 319 319 319 319 319 319 319 319 318 318 317 317 317 316 316 316 317 317 316 316 317 318 318 317 317 316 316 316 316 316 315 314 313 312 312 312 311 310 309 307 306 305 305 304 304 304 303 302 302 302 301 301 300 299 299 298 298 298 299 299 299 299 299 298 298 298 298 298 297 297 296 296 296 295 295 295 294 294 294 294 294 294 293 293 293
319 318 318 319 319 319 319 318 318 318 318 317 317 317 317 316 316 316 317 317 316 316 317 318 318 317 317 316 316 315 315 315 315 314 312 311 311 310 309 308 307 306 305 304 304 304 303 303 302 302 301 301 300 300 299 299 298 298 298 298 297 298 298 299 298 297 297 297 297 297 296 296 296 295 295 295 294 294 294 294 293 293 293 292 292 292 292
318 318 318 318 318 318 319 318 318 318 318 317 317 316 316 316 316 316 316 316 315 315 316 317 317 317 317 316 316 315 315 315 314 313 311 311 310 309 308 307 306 305 304 304 304 304 303 303 302 301 301 300 300 299 299 298 298 298 298 297 297 297 297 297 297 296 296 296 296 295 295 295 295 295 294 294 294 293 293 293 292 292 291 291 291 290 290
317 317 318 318 319 319 319 319 319 318 317 316 316 316 315 315 315 315 315 314 315 315 316 316 316 316 316 316 316 316 315 313 312 312 311 311 310 309 308 307 306 305 305 305 304 304 303 303 302 301 301 300 299 299 298 298 298 298 298 297 297 297 296 296 296 296 295 295 295 294 294 294 294 294 293 293 293 292 292 291 291 290 290 290 290 290 290
317 317 317 317 318 318 318 318 317 317 316 315 315 315 315 314 314 315 315 315 315 316 316 315 315 315 315 315 315 315 314 313 312 311 310 310 310 309 308 306 305 304 304 304 304 304 304 303 302 301 300 300 299 298 298 298 298 298 297 297 297 297 296 296 296 296 295 294 294 294 294 293 293 293 293 292 292 292 291 291 290 289 289 289 290 290 289
316 316 316 316 316 316 316 316 316 316 316 316 315 315 315 315 315 315 315 315 315 316 315 315 314 314 314 314 314 314 314 312 311 311 310 310 309 308 306 305 305 304 304 304 304 304 303 302 301 300 300 299 298 298 297 297 297 297 297 297 297 296 296 296 295 295 295 294 294 294 294 293 293 293 293 292 292 291 291 290 290 289 289 289 289 289 289
315 315 315 316 315 315 315 314 314 314 315 315 315 315 315 315 315 315 315 316 316 315 315 314 314 313 313 314 314 313 312 311 311 310 309 309 308 306 305 305 304 304 304 303 303 303 302 301 300 300 299 298 298 298 297 297 297 297 297 297 296 296 295 295 295 295 295 294 294 294 294 294 293 293 293 292 292 292 291 290 290 290 289 289 289 289 289
Wind_Speed
3 3 1 1 2 2 3 5 5 4 4 6 5 5 6 7 6 8 7 6 7 8 8 9 9 10 12 16 19 21 21 23 25 26 28 30 31 32 30 27 24 22 20 20 17 14 12 10 8 8 8 10 11 11 10 11 12 11 11 10 8 9 9 9 9 10 10 12 13 14 16 17 18 19 19 18 17 16 16 16 15 15 15 16 17 16 16
2 1 3 1 3 3 1 2 4 5 6 7 7 5 5 7 7 8 4 6 8 9 9 10 9 10 15 17 17 19 21 23 26 28 31 32 32 32 31 28 25 22 21 19 16 15 14 10 8 9 11 11 11 10 10 11 11 11 10 10 9 9 9 8 9 10 11 12 13 15 16 16 17 17 17 17 17 16 16 16 16 17 17 17 17 17 18
2 3 1 2 4 4 2 3 4 2 2 3 4 3 3 4 5 7 3 4 8 8 9 10 9 9 13 14 15 19 23 25 28 30 32 32 32 32 30 28 25 22 21 18 17 17 14 10 10 12 12 12 11 10 10 10 10 10 11 11 11 10 9 8 8 10 11 13 15 16 15 15 15 16 17 18 18 18 17 17 17 18 18 18 18 19 20
3 3 1 3 5 4 2 5 7 5 2 3 3 3 4 5 4 4 3 3 7 7 5 5 5 8 12 13 16 20 22 26 30 32 33 33 33 31 30 28 25 22 20 19 18 16 11 10 12 13 12 12 11 9 8 9 9 10 11 12 12 11 10 8 9 10 12 14 15 15 14 14 16 17 18 18 19 19 19 17 18 18 18 19 19 19 21
4 4 2 4 5 4 3 6 7 6 4 4 3 2 4 6 5 4 4 6 7 5 2 3 4 6 9 15 20 22 23 27 31 32 34 33 31 31 30 28 25 21 20 19 17 12 10 12 13 12 12 11 10 8 7 8 8 9 11 12 13 13 11 10 11 11 13 14 15 14 15 16 17 18 19 19 19 20 19 17 17 17 18 19 19 19 20
3 5 4 4 1 2 5 6 6 6 4 6 5 5 7 7 5 4 5 6 5 4 4 6 7 8 10 15 22 24 25 28 31 32 33 31 30 30 29 27 22 20 20 19 15 11 12 14 13 12 11 10 9 7 7 8 9 9 10 11 13 13 12 12 12 12 14 15 15 15 16 17 18 18 18 19 19 19 18 16 16 17 17 18 18 18 19
2 1 5 2 5 7 6 6 3 2 2 6 7 7 8 8 7 6 7 9 8 7 8 7 7 8 9 10 14 20 24 28 32 33 32 30 29 29 28 25 21 20 20 18 14 13 14 15 14 12 10 8 8 8 8 8 9 9 10 12 13 14 13 13 13 14 15 16 16 17 18 19 18 17 17 18 18 17 17 16 16 16 16 17 18 18 19
2 2 3 4 6 6 7 7 4 2 1 2 3 5 8 8 7 7 8 10 8 5 7 6 5 5 5 5 7 15 21 27 32 32 30 28 27 26 24 22 20 19 18 16 15 15 15 15 15 12 8 7 8 9 9 9 9 9 11 14 14 14 13 13 13 14 15 16 16 17 19 19 17 16 17 17 16 16 16 16 16 16 16 17 19 20 19
3 3 3 3 5 6 6 5 4 4 3 4 5 3 7 7 7 8 7 7 4 4 4 4 3 3 2 3 5 12 19 25 29 28 26 24 21 20 19 19 17 15 14 14 15 15 15 17 16 12 9 8 10 10 10 10 10 11 13 15 15 14 13 12 12 13 13 14 16 17 18 18 17 17 17 16 16 16 16 17 17 16 17 18 20 21 20
3 4 0 2 3 4 5 8 8 4 3 7 8 3 5 7 8 13 9 5 6 7 6 7 9 7 4 3 6 12 18 22 25 26 24 21 18 17 17 17 16 15 15 15 15 16 18 19 18 14 11 11 11 12 11 11 11 12 14 15 16 15 14 12 12 12 13 14 15 16 17 18 17 16 16 15 15 15 16 18 17 16 17 18 18 20 20
3 4 2 3 4 5 7 10 10 5 6 10 8 4 5 7 8 14 11 6 8 10 12 14 12 7 3 4 8 13 18 21 23 24 22 19 17 16 15 15 14 15 15 16 18 19 21 21 19 16 14 13 14 14 12 11 12 14 14 15 14 13 12 11 11 12 12 13 13 14 16 17 17 17 16 14 15 15 16 18 17 16 17 17 17 18 19
3 4 3 3 4 5 7 9 8 4 10 10 6 2 7 6 7 13 13 11 13 15 18 16 10 5 5 4 5 12 18 19 21 21 18 17 16 15 14 14 14 15 16 18 21 23 23 21 18 17 15 14 16 16 13 11 13 14 13 13 12 12 12 11 11 11 12 12 13 14 16 17 17 16 15 14 15 16 17 17 17 17 17 17 17 18 18
4 4 4 4 3 5 8 8 6 10 11 6 2 5 8 7 10 14 16 16 17 20 22 18 12 9 6 4 4 13 17 17 18 17 16 16 15 14 14 15 16 17 19 21 23 24 23 20 18 18 17 16 17 17 14 13 14 13 12 12 13 13 13 12 11 11 11 12 14 15 16 17 16 15 15 15 16 16 16 16 17 17 17 17 17 17 16
3 4 3 3 4 7 8 5 7 12 8 2 7 7 6 10 15 15 15 16 18 22 24 21 17 13 9 8 8 12 14 14 15 14 14 15 16 16 16 17 18 19 20 22 24 25 23 21 19 18 18 18 19 18 16 15 14 12 12 13 14 13 14 13 12 12 12 13 14 15 15 15 15 14 14 13 13 13 13 14 15 15 16 16 17 16 15
3 1 1 1 4 6 7 8 6 6 6 4 6 8 7 9 14 15 15 17 18 21 22 20 17 15 10 7 6 8 10 11 12 12 14 15 15 16 17 17 19 20 21 23 25 25 24 21 19 19 19 20 21 20 19 16 14 13 14 14 14 13 13 13 13 13 13 14 14 14 13 12 12 12 12 11 11 11 12 14 15 15 15 16 17 17 16
3 2 3 5 5 6 6 8 4 8 12 8 5 10 11 10 12 16 17 17 18 19 18 18 17 15 11 8 7 8 10 11 11 12 13 13 15 16 16 17 18 20 22 23 25 26 24 20 19 20 20 21 22 21 19 16 14 14 15 15 15 15 15 15 15 14 14 14 14 13 11 9 9 10 10 10 10 11 13 14 15 15 15 16 17 17 17
4 5 5 7 8 10 10 13 12 11 13 13 9 10 14 14 15 16 15 16 17 17 15 18 19 14 10 10 10 10 10 10 11 11 12 13 14 15 16 18 19 22 23 24 26 27 23 20 19 20 20 21 22 22 18 15 15 15 15 17 18 18 17 17 16 16 15 14 13 12 10 8 7 8 8 8 9 11 13 14 15 15 15 15 16 17 17
3 4 6 7 9 11 10 14 16 14 11 13 14 13 15 17 17 16 15 15 16 17 16 18 19 15 11 11 10 9 9 9 10 11 12 13 14 15 17 18 20 22 23 25 27 26 23 19 18 18 18 20 22 21 17 15 15 16 17 19 20 18 17 16 15 16 16 14 12 11 10 8 7 6 6 7 9 12 14 15 15 15 15 15 15 15 16
3 3 4 6 9 10 8 7 10 10 8 12 14 14 15 16 15 14 13 13 14 16 15 15 16 15 12 10 9 7 7 8 9 10 12 12 12 14 16 18 20 22 23 24 26 25 21 18 17 16 17 19 20 19 16 15 15 17 18 19 19 17 16 15 15 15 16 14 11 10 10 9 7 6 6 8 11 13 15 15 15 15 15 15 15 14 15
0 5 9 11 11 9 5 3 6 7 9 11 12 12 15 16 14 12 12 12 14 15 14 12 13 13 11 9 7 6 5 6 7 8 9 10 12 15 17 19 21 23 23 23 23 22 18 15 14 15 17 17 18 17 15 15 16 17 18 18 17 17 16 15 16 15 15 14 12 10 10 10 8 8 9 11 12 14 14 15 15 16 16 16 15 14 15
3 5 8 10 8 6 3 2 5 6 9 10 9 11 13 14 14 13 13 13 13 14 13 11 11 10 8 7 5 4 3 4 5 7 8 10 12 14 16 18 19 21 21 22 21 19 16 14 14 15 16 16 17 17 16 16 16 16 16 15 16 16 15 14 14 14 14 14 13 12 10 10 10 10 12 13 13 14 14 14 14 15 16 16 15 15 15
3 4 6 4 2 3 2 4 6 6 8 9 10 11 12 13 14 15 16 16 14 12 12 10 9 7 6 4 3 4 5 6 8 9 11 12 13 13 13 13 14 16 17 18 18 16 15 15 15 16 16 17 18 18 18 16 15 15 15 14 14 14 14 13 13 14 14 15 15 14 12 10 11 12 14 14 13 13 14 14 13 14 15 15 14 14 14
6 12 15 10 5 4 4 6 8 9 11 12 12 12 13 14 15 15 16 16 14 12 10 7 5 4 4 5 6 7 8 8 10 11 12 13 14 13 13 12 12 13 15 16 16 16 16 16 17 17 17 18 18 18 17 16 16 16 16 15 15 14 14 13 14 15 16 17 16 15 13 11 12 14 14 13 12 12 13 14 14 14 13 13 13 12 13
10 19 25 20 13 9 6 7 11 14 15 15 15 14 14 15 15 14 13 13 11 9 7 6 5 5 5 6 7 7 9 9 11 12 12 12 12 12 13 13 13 13 14 15 15 16 16 17 17 17 17 17 17 17 16 16 17 18 18 18 17 16 15 15 15 16 17 17 16 15 13 12 13 15 14 12 11 11 12 13 14 13 12 12 12 12 12
15 23 26 22 17 14 10 10 14 16 15 14 14 14 14 14 13 12 10 8 7 6 6 6 6 5 5 6 8 9 9 10 10 10 9 9 9 9 11 12 13 13 14 15 16 17 17 17 17 16 17 17 17 17 17 18 19 19 18 19 19 19 18 17 16 15 16 16 15 15 14 14 14 14 13 11 9 9 10 11 12 13 12 11 11 12 12
20 23 21 16 12 9 9 12 14 14 14 13 12 11 11 11 10 10 8 7 7 6 5 5 5 6 7 8 9 9 8 8 8 8 7 7 7 8 9 11 13 14 15 16 17 17 17 17 16 16 16 17 17 18 18 20 21 21 20 20 21 21 20 19 18 16 14 13 14 15 15 14 12 12 11 10 10 9 9 9 10 10 11 11 11 12 12
25 25 19 13 11 8 9 13 11 11 14 14 13 13 13 12 12 11 10 9 8 7 7 6 7 8 9 9 8 8 7 7 7 7 7 6 6 7 8 10 11 12 13 14 15 15 16 15 15 15 15 16 16 17 17 19 21 21 21 22 22 22 21 21 20 18 16 15 15 14 13 11 10 10 10 10 10 9 7 7 8 8 9 11 11 11 12
29 30 24 19 19 19 17 16 15 15 18 19 19 18 18 16 15 14 13 12 11 11 10 10 10 9 9 9 8 8 8 8 8 8 8 8 8 8 9 10 11 12 13 13 13 13 14 14 14 14 14 14 15 15 16 17 18 19 21 22 22 21 20 20 19 19 17 14 10 9 10 9 9 9 8 8 9 8 6 6 7 7 8 9 9 9 9
25 26 25 25 28 29 26 23 22 21 22 22 22 21 20 20 19 18 16 14 13 13 13 12 11 11 10 9 9 9 9 10 10 10 10 10 10 11 12 13 14 14 13 13 13 12 12 12 13 13 12 12 13 13 13 14 17 19 22 22 20 18 17 17 16 16 15 11 7 8 9 10 9 7 7 7 7 6 6 6 7 7 8 8 7 6 6
24 24 25 27 28 27 27 27 27 25 24 25 25 24 22 22 21 19 17 15 15 14 13 12 11 11 10 9 10 10 11 12 12 12 12 12 13 14 15 15 14 13 12 12 12 11 11 11 11 10 10 9 10 12 13 14 16 18 19 18 15 14 16 17 15 15 14 10 7 7 9 9 7 5 5 5 5 5 6 7 8 9 10 9 8 7 6
29 29 30 30 29 27 27 28 28 27 27 27 27 25 24 23 21 19 18 16 15 14 12 11 11 10 10 10 11 11 12 12 12 12 13 13 13 13 13 12 11 11 10 10 10 9 9 8 8 8 9 10 12 14 14 13 13 13 13 13 12 12 14 14 13 14 13 10 7 7 9 10 7 5 5 4 4 4 5 6 9 11 12 11 10 10 8
32 32 31 29 27 25 25 25 27 27 27 28 28 28 27 25 22 19 18 16 14 13 12 11 11 10 9 10 10 10 11 11 11 11 11 11 10 10 9 8 7 7 7 8 8 7 7 8 9 10 12 12 12 12 11 10 11 11 12 12 11 10 11 11 11 11 11 10 10 11 11 8 5 4 4 4 3 3 5 7 10 13 14 13 11 11 10
32 30 27 26 23 22 23 25 26 29 30 31 31 29 26 23 20 18 16 15 14 13 12 10 9 8 8 7 7 6 7 7 7 7 7 6 6 5 4 4 4 4 5 6 6 7 8 9 10 12 12 12 11 11 10 10 11 12 12 12 10 8 8 9 10 10 10 12 12 11 8 5 3 4 4 3 2 4 7 9 10 12 14 12 10 10 10
32 31 31 31 28 26 26 27 27 30 32 32 29 26 23 21 19 17 16 15 14 12 10 8 7 6 5 4 3 3 3 3 3 3 3 2 2 1 1 2 2 3 4 5 5 6 8 9 10 11 12 11 11 10 9 8 7 7 9 10 10 9 9 10 11 10 10 10 9 6 2 3 3 3 3 4 6 7 8 9 10 11 12 10 8 8 7
32 34 34 34 32 31 31 31 30 32 34 32 28 25 22 20 17 15 14 13 11 9 8 7 6 5 3 2 1 2 2 2 2 2 2 2 1 1 1 2 2 3 4 4 5 6 7 7 7 8 8 7 5 4 3 3 2 4 6 7 8 9 8 7 7 5 4 4 2 1 2 2 3 4 5 7 8 8 7 7 8 9 9 8 6 5 5
29 31 31 31 31 31 31 30 31 34 35 32 28 24 20 17 14 12 11 10 8 7 7 6 5 3 2 2 2 2 2 3 3 3 3 2 2 2 1 1 2 3 4 4 5 6 6 6 7 6 6 4 2 1 1 1 1 1 3 4 5 6 6 3 1 1 1 1 1 2 4 5 6 8 8 8 9 8 7 6 6 7 7 6 4 3 3
25 26 27 27 27 28 30 30 30 29 28 24 20 17 15 13 12 10 9 8 7 7 6 4 3 2 2 2 2 3 4 4 4 4 3 3 3 2 1 1 1 2 4 5 5 5 5 5 5 5 4 4 3 2 1 2 2 3 3 3 3 4 4 2 0 1 1 2 3 4 6 7 8 9 9 9 9 8 7 7 6 6 5 4 3 3 3
21 20 21 23 24 26 28 27 25 24 23 19 14 12 11 11 10 9 8 8 8 7 5 4 3 3 3 3 4 5 5 5 4 4 3 3 3 2 1 0 1 3 4 3 3 2 3 3 3 3 4 4 2 2 2 2 1 1 4 4 4 2 1 1 1 2 3 5 6 8 9 10 9 8 8 7 7 6 5 5 4 3 1 1 0 1 1
18 16 15 19 23 25 24 21 22 23 22 19 17 17 15 13 11 10 10 10 9 7 6 5 5 4 4 5 5 5 5 4 3 3 3 4 4 2 1 1 2 4 4 3 3 4 5 5 4 4 4 4 3 2 4 4 4 3 1 1 1 2 2 3 4 6 7 8 9 11 11 10 8 6 4 3 3 3 2 2 3 3 3 3 2 2 2
14 12 12 15 20 23 24 26 27 26 23 20 19 19 18 15 13 12 11 11 10 8 6 5 4 4 5 6 5 5 4 3 4 5 5 5 4 2 2 4 5 5 6 7 7 7 6 5 5 3 3 2 2 2 3 3 2 2 2 3 4 4 4 5 6 7 8 9 10 10 9 7 4 3 3 3 3 3 3 3 4 4 4 3 3 3 4
7 8 12 16 17 19 26 31 29 24 21 19 16 15 15 13 12 11 10 9 9 7 6 5 5 5 6 6 5 4 5 6 7 8 6 5 4 3 4 5 7 7 8 9 9 8 6 5 4 2 2 1 1 1 1 2 3 4 5 5 6 6 6 6 7 7 8 8 8 7 5 4 3 4 5 5 6 6 5 5 5 4 4 5 5 5 5
3 7 13 16 12 10 17 25 24 19 17 16 15 13 12 10 7 7 7 7 7 6 6 6 6 6 6 6 5 5 7 9 10 9 8 6 4 3 3 6 7 8 9 9 8 7 5 4 3 2 2 1 0 1 2 3 4 5 6 7 7 7 7 7 7 7 6 6 5 4 3 3 4 6 7 8 9 9 8 7 6 6 6 6 7 7 6
6 8 12 15 11 6 7 13 16 16 15 13 10 8 7 7 6 7 8 8 7 6 7 7 8 7 7 6 5 7 10 11 10 9 9 7 5 4 4 6 8 8 8 7 6 5 4 4 3 3 2 2 2 2 3 4 5 7 7 7 7 7 6 6 6 5 5 4 2 2 4 4 5 7 8 9 9 9 8 7 7 6 6 6 7 7 7
4 7 9 11 10 8 8 9 12 13 11 8 6 7 8 9 8 8 8 7 7 6 6 6 7 8 7 6 6 8 11 11 10 8 8 8 7 6 6 6 6 6 5 4 3 4 4 4 4 3 3 3 4 5 6 7 8 8 7 7 6 5 4 4 4 3 3 1 2 4 5 5 6 7 7 8 8 7 6 6 6 6 5 6 6 7 7
2 4 7 8 9 10 10 9 7 6 6 7 8 9 9 9 8 7 7 6 7 7 6 6 6 7 8 8 9 10 11 10 8 7 6 6 6 7 6 5 5 4 4 3 4 5 5 4 3 3 4 5 6 8 10 10 10 9 7 6 4 3 2 2 2 1 1 2 3 4 4 4 5 5 6 6 6 6 6 6 6 6 6 6 7 7 8
3 6 8 7 6 7 8 8 7 6 7 9 11 10 9 8 8 8 8 7 7 7 7 6 6 6 8 9 10 11 11 10 8 6 4 4 4 5 5 4 4 3 3 4 4 4 4 4 4 4 5 7 8 10 11 11 10 8 6 4 2 1 1 0 1 1 2 2 2 2 2 3 4 5 5 6 6 6 6 7 7 7 7 7 7 8 8
5 6 5 5 6 7 8 8 9 9 10 9 8 8 9 9 8 8 8 7 6 6 6 7 7 7 7 8 9 9 9 10 10 8 5 3 3 3 3 3 3 3 3 3 3 3 4 4 4 5 7 8 9 11 11 10 9 7 5 3 3 2 2 2 3 3 3 3 2 2 2 4 4 5 5 6 6 6 7 7 7 7 7 7 7 7 6
5 5 5 5 7 9 9 10 9 8 7 6 5 6 7 7 7 6 7 6 6 5 6 6 7 8 9 9 8 7 6 6 7 7 5 4 3 2 2 3 3 3 4 5 4 3 3 4 5 6 7 8 9 10 11 9 7 5 4 3 4 4 4 4 4 4 4 4 4 3 4 4 5 5 6 6 7 7 8 8 7 7 6 6 5 4 2
5 5 5 6 6 7 7 7 6 5 5 5 5 4 4 4 4 5 5 5 5 6 6 7 8 10 10 10 10 9 7 6 5 4 4 4 4 3 2 1 1 2 4 6 6 5 5 5 6 7 8 8 8 9 9 7 5 3 2 3 4 4 4 4 4 4 4 5 5 5 4 4 5 5 6 7 7 8 8 7 6 5 4 3 2 1 0
6 6 6 6 6 6 6 5 4 4 4 4 3 2 1 2 3 4 4 5 6 7 7 7 9 10 10 11 11 11 11 9 8 6 6 6 6 5 3 3 3 2 1 2 5 6 6 6 6 7 8 7 7 8 8 6 3 2 1 1 2 3 3 2 2 3 4 5 6 6 6 6 6 7 7 7 8 8 7 6 4 3 2 1 1 1 0
5 5 5 5 5 4 4 3 2 2 2 2 2 2 2 2 3 4 5 6 7 7 8 10 10 11 11 11 12 12 12 12 11 9 8 7 6 6 5 5 6 6 6 4 3 5 7 6 5 5 6 7 7 7 7 5 3 2 1 1 2 3 3 2 2 2 3 4 6 7 7 8 8 8 8 8 9 9 7 5 4 3 1 0 1 2 1
5 5 4 4 3 2 1 1 2 2 3 3 3 4 4 3 4 5 6 7 8 8 9 10 11 12 12 12 13 13 13 13 12 10 8 8 7 7 7 8 8 8 8 7 6 7 7 7 6 6 6 6 6 6 6 4 3 3 3 3 3 4 3 2 2 2 2 4 6 7 8 9 9 9 9 8 9 9 8 6 4 2 1 0 0 1 1
Wind_Direction
208 196 234 325 95 125 160 154 162 176 170 164 175 205 197 154 169 247 244 180 199 244 256 249 235 218 218 220 217 215 209 202 198 193 194 197 196 195 197 202 207 209 214 219 219 219 220 224 239 258 277 294 301 296 286 284 287 288 290 295 298 295 289 283 281 286 298 308 314 317 319 321 322 322 321 318 315 314 316 317 318 318 318 319 323 328 333
94 261 288 266 123 113 128 188 190 175 173 189 203 218 199 179 217 252 222 193 229 248 246 249 253 239 227 221 215 210 205 200 195 192 194 196 195 196 199 204 207 209 214 219 220 219 218 223 242 259 273 288 298 294 284 284 287 286 288 294 297 295 289 285 285 291 299 308 312 315 317 318 317 317 316 314 312 312 314 316 316 316 317 319 319 319 323
360 327 339 117 110 131 180 277 282 223 171 204 226 238 199 182 252 275 257 229 259 261 241 249 262 234 209 207 206 204 202 198 192 191 194 195 195 197 201 205 207 210 215 218 219 219 219 231 250 259 271 286 294 292 284 283 286 286 290 294 296 297 296 294 295 300 306 311 312 313 315 313 311 313 315 313 312 313 313 314 316 315 315 317 317 315 317
276 293 91 75 41 58 39 306 282 253 225 213 217 209 179 174 212 258 272 246 257 264 250 245 240 196 186 195 201 199 198 196 193 193 194 194 195 198 203 206 208 211 214 215 215 216 222 241 251 258 271 283 290 290 283 282 286 290 293 296 297 297 300 301 300 303 309 313 313 311 308 306 306 311 315 315 316 316 313 311 312 314 315 317 317 315 314
258 290 45 61 41 36 318 277 236 209 207 217 235 255 220 201 177 185 223 227 237 266 267 217 210 190 194 207 206 201 197 194 195 197 195 193 196 201 205 207 207 210 213 212 212 214 230 245 251 259 271 283 291 288 277 280 288 294 297 299 298 297 299 303 304 306 309 311 310 307 305 305 306 309 312 315 318 318 313 309 309 313 317 319 320 317 314
250 291 23 52 52 227 250 244 194 167 174 191 206 242 239 224 193 191 233 244 251 257 222 214 217 205 210 221 218 212 204 197 195 196 195 194 199 204 207 207 208 212 213 211 211 219 235 244 248 256 268 283 291 279 270 281 288 294 300 299 298 296 296 300 305 307 308 307 305 302 304 307 308 309 311 314 317 317 312 308 309 315 320 324 327 325 320
174 6 56 87 230 229 246 272 255 214 191 174 192 244 257 241 230 239 256 260 258 238 218 233 253 237 238 250 233 218 210 203 198 195 194 197 202 206 207 206 209 213 211 210 213 221 235 243 245 250 262 280 285 271 267 281 289 294 299 298 296 294 293 295 301 304 306 305 302 301 305 309 310 311 312 312 314 312 309 308 313 319 323 328 334 333 327
147 106 113 191 239 258 283 297 279 206 145 142 180 279 281 248 216 208 231 251 258 238 227 250 278 255 256 288 250 219 210 206 201 197 196 200 205 208 209 209 212 213 213 218 221 225 236 242 241 245 255 268 274 267 262 274 286 291 295 295 294 294 293 293 295 300 303 303 302 306 311 312 312 312 312 312 311 309 308 311 317 320 321 326 332 332 328
153 145 183 239 290 305 306 291 233 181 172 170 165 237 274 254 203 181 206 246 232 181 205 213 159 142 97 356 272 226 211 207 205 202 201 203 209 213 214 217 220 220 225 231 229 229 236 239 239 242 246 254 264 262 258 269 280 283 288 293 293 294 295 293 292 294 298 300 304 310 315 315 313 311 311 311 311 311 313 316 321 321 319 324 332 334 332
112 107 157 290 282 269 261 251 245 236 186 161 141 138 279 273 221 197 201 222 186 162 151 150 140 119 81 353 265 223 212 210 205 202 205 209 215 219 220 224 227 226 230 232 229 230 234 237 238 236 236 246 257 259 260 271 279 279 285 292 293 294 296 295 291 290 291 296 303 310 315 319 319 316 314 315 316 319 319 320 322 320 318 324 332 336 337
109 127 187 216 216 237 240 243 256 255 177 154 114 69 292 277 227 206 203 198 181 167 158 156 141 112 118 261 251 215 206 206 201 200 207 212 217 221 223 229 233 233 234 233 229 230 233 237 237 232 232 242 252 258 265 274 278 279 286 295 296 293 291 288 284 286 288 292 299 308 315 320 322 320 319 318 320 323 322 320 320 318 318 324 329 334 338
160 152 197 228 237 246 238 245 259 213 163 146 101 348 271 259 210 201 200 197 190 176 162 154 144 140 175 237 242 201 197 200 200 203 210 214 216 221 224 228 232 233 235 234 231 232 237 240 237 229 231 242 250 257 265 270 275 282 291 295 291 280 274 271 271 279 285 289 295 304 311 316 320 320 318 317 320 322 321 320 320 319 318 320 323 329 337
172 169 215 257 265 244 241 249 224 164 144 130 161 224 234 213 193 199 205 202 193 178 166 163 175 183 158 109 158 182 188 195 198 205 214 217 220 226 229 230 231 232 236 236 235 237 242 244 238 229 231 242 251 258 261 264 274 286 291 288 279 268 263 260 260 269 281 288 295 302 307 311 315 315 313 313 317 321 323 325 326 325 323 320 321 327 334
162 169 206 276 290 249 227 211 170 153 144 202 225 209 202 193 192 198 204 202 193 181 177 183 192 184 145 115 143 174 187 196 202 210 219 222 225 228 229 230 233 237 241 241 240 242 245 243 237 232 234 243 252 256 256 260 273 285 282 278 275 268 263 261 261 267 278 286 294 303 306 307 309 312 311 311 315 320 326 330 331 330 328 325 323 325 330
152 138 164 249 286 255 189 141 127 164 188 220 201 176 167 186 196 198 197 198 194 187 188 194 194 185 171 154 154 173 190 202 210 216 219 222 224 226 228 232 235 239 242 244 245 247 247 243 238 234 236 244 252 254 252 258 271 276 271 271 273 270 267 267 266 268 275 282 291 300 302 301 306 311 308 307 312 319 325 328 330 328 326 324 324 325 328
147 153 194 199 241 265 203 170 184 217 216 221 192 169 170 176 190 195 193 194 196 194 196 199 194 191 197 200 192 191 194 198 203 206 210 216 220 225 232 237 241 244 246 248 249 249 249 247 242 237 238 246 253 252 251 258 267 268 267 268 271 273 273 272 271 269 271 278 287 294 294 297 308 312 309 308 311 314 317 321 326 329 327 323 324 326 328
182 187 224 244 277 297 262 236 250 257 234 226 213 192 186 179 180 185 184 185 189 191 197 200 195 192 198 201 200 200 197 198 204 209 215 221 224 231 236 240 245 249 250 253 253 251 252 251 245 239 241 250 254 251 250 258 263 264 266 268 271 275 276 275 275 271 266 272 282 286 286 296 310 313 314 315 313 313 315 318 322 328 330 326 325 328 330
278 251 259 279 296 307 284 248 254 271 251 216 202 197 190 176 168 168 166 169 177 182 191 198 198 198 201 199 198 200 201 207 216 222 229 233 236 241 246 249 252 253 254 255 254 253 255 251 242 239 246 256 258 252 251 260 263 263 266 272 278 282 279 277 279 272 262 267 277 279 280 292 307 312 313 316 317 321 325 324 323 326 330 329 327 327 330
339 276 275 314 315 309 306 264 246 252 227 195 188 185 178 166 156 156 162 167 175 183 191 199 201 200 198 194 196 201 207 220 230 235 241 248 252 254 256 258 258 257 258 258 256 257 257 247 239 246 259 265 261 251 253 266 266 262 268 278 287 289 282 279 281 273 260 260 268 274 277 285 294 302 307 313 321 328 330 328 324 323 326 328 327 326 326
276 246 268 300 311 307 305 255 217 204 178 172 172 170 168 163 156 157 166 175 181 184 187 193 195 193 190 193 200 207 218 237 251 257 263 269 268 265 264 263 262 262 263 263 262 262 259 247 245 259 270 269 258 250 260 275 269 262 269 280 287 289 285 282 281 271 257 256 267 276 279 278 281 294 304 310 316 323 327 325 322 321 324 326 327 325 324
302 271 279 293 305 321 334 166 180 180 170 168 166 165 171 173 168 163 162 166 173 176 174 176 178 178 178 184 193 208 239 264 275 280 283 282 278 274 272 270 269 268 266 265 264 263 258 253 258 266 269 264 254 253 263 270 263 260 268 276 281 285 286 284 276 262 251 256 271 284 287 280 277 288 299 304 308 314 319 318 316 317 320 323 326 326 325
305 271 276 265 249 296 283 170 162 172 180 180 171 166 170 173 171 168 163 158 158 162 163 165 167 168 173 186 217 252 270 282 290 293 293 290 287 284 280 276 274 271 267 265 263 260 259 262 265 262 257 253 251 254 260 260 255 255 261 266 274 280 280 274 267 258 255 262 274 284 290 286 279 284 294 299 301 307 313 313 311 312 314 318 324 327 327
265 286 293 283 251 251 232 188 182 182 185 191 192 185 181 177 173 172 169 162 157 157 160 167 181 201 224 242 255 269 279 287 293 294 291 287 282 278 276 274 274 273 270 267 265 263 263 264 261 254 249 247 249 253 257 256 253 252 253 258 268 276 276 272 269 267 267 269 274 280 285 284 279 282 290 294 296 302 308 308 306 305 307 313 321 324 327
281 306 310 301 277 260 245 214 201 191 187 193 196 191 186 179 171 171 174 171 167 170 179 193 212 230 250 258 265 275 278 279 280 279 275 272 268 266 268 270 270 269 267 264 262 262 262 262 260 255 249 247 250 254 256 254 252 251 252 256 265 273 275 274 277 278 275 272 272 276 280 278 274 278 284 287 291 299 303 302 301 301 303 307 313 319 324
308 317 318 307 284 266 253 226 205 196 195 196 191 188 188 183 177 177 181 184 190 198 207 214 217 225 242 253 259 262 260 258 260 261 262 263 264 265 270 271 268 265 263 262 262 263 264 266 265 259 251 250 253 255 255 255 254 253 253 257 266 275 277 272 272 274 274 272 272 273 274 271 268 274 282 285 289 299 300 297 295 295 297 302 307 314 320
318 323 325 315 297 274 231 206 199 201 204 198 193 198 201 195 193 195 195 198 204 208 213 218 222 226 232 235 237 239 240 243 249 257 264 269 269 271 271 270 268 268 268 268 267 268 270 271 268 263 259 258 259 260 261 262 261 259 259 261 268 277 280 275 271 269 267 269 271 270 267 266 268 275 280 283 293 303 301 291 286 287 291 299 306 313 320
303 309 314 310 303 284 224 209 218 228 220 212 214 218 214 207 205 201 195 193 193 192 194 204 213 219 223 225 225 225 231 240 248 257 265 265 264 263 262 267 274 277 278 277 274 271 273 275 274 273 271 270 272 275 279 279 274 269 266 265 268 275 279 276 273 272 270 270 269 264 260 262 270 274 275 284 298 307 303 293 290 291 296 304 312 319 324
291 295 296 289 286 286 271 252 250 246 231 222 220 218 213 211 207 200 196 195 193 194 199 204 206 209 212 217 221 224 230 240 244 248 251 250 251 256 262 271 280 280 279 278 274 271 274 276 277 281 285 287 290 292 292 289 283 275 270 269 269 274 280 280 276 275 276 273 269 269 270 268 264 266 275 292 303 306 306 306 307 310 315 319 323 325 324
291 295 294 286 285 289 283 265 251 244 234 226 219 215 213 210 204 198 198 197 197 201 205 205 209 213 214 218 224 227 230 234 235 238 244 248 253 260 265 269 270 268 267 267 269 271 276 278 279 285 290 294 296 294 290 292 292 285 279 277 273 271 279 286 283 278 276 272 269 279 278 262 248 256 282 299 301 302 309 318 324 331 336 339 338 329 318
295 298 296 291 291 291 283 269 259 251 239 227 219 214 212 210 203 196 195 198 200 204 206 208 213 218 217 220 227 230 233 237 241 246 253 257 260 263 265 266 266 266 266 268 271 276 278 278 279 283 286 288 290 288 288 297 305 299 289 285 281 276 282 287 284 277 275 272 266 266 260 249 248 270 289 289 293 305 317 331 342 345 345 348 350 347 341
290 291 291 291 293 292 285 274 264 252 237 224 217 209 205 204 202 198 196 199 201 201 203 204 206 207 210 219 228 235 242 249 254 257 259 262 265 269 272 273 273 273 270 270 272 272 270 269 270 274 279 283 286 287 287 294 303 301 291 289 291 286 283 282 275 266 263 258 248 241 238 238 249 273 279 275 285 305 323 337 342 341 341 343 346 350 355
283 285 286 288 290 289 281 270 258 244 228 216 211 208 205 203 204 202 201 200 197 193 192 194 198 208 222 231 237 245 252 255 257 259 263 268 274 279 283 281 275 269 265 264 266 264 264 269 275 282 286 288 288 290 292 292 291 289 288 292 294 286 275 270 266 260 254 247 240 233 227 225 239 268 273 271 278 305 331 338 335 334 337 341 344 349 356
274 274 276 278 279 276 269 261 250 237 224 215 210 209 207 205 205 204 201 195 188 185 188 195 209 224 236 241 246 251 251 250 254 260 267 273 276 278 280 279 273 268 265 265 266 270 277 285 290 292 292 290 287 286 284 281 280 281 282 284 284 279 270 265 261 256 245 232 222 216 216 231 270 280 275 284 311 324 331 334 331 330 335 341 350 357 2
273 273 273 273 273 271 269 264 249 230 217 211 207 204 203 202 200 197 192 186 184 186 192 203 215 223 228 235 243 240 229 231 244 252 248 247 254 269 286 285 277 272 270 272 279 288 293 296 298 297 293 289 286 281 271 263 269 282 285 280 276 274 267 254 243 236 226 214 203 197 218 279 296 297 302 318 326 326 328 330 329 329 332 340 352 4 13
278 278 278 276 274 272 272 269 254 232 216 207 202 199 196 192 189 185 182 181 182 187 194 199 202 204 203 199 198 202 203 200 196 193 197 206 222 253 272 282 286 290 295 299 305 311 314 318 321 319 309 298 289 274 242 228 256 294 302 295 282 268 254 239 228 222 210 196 197 305 343 333 327 327 323 320 318 317 319 321 318 319 324 329 341 1 23
280 276 276 276 274 271 268 262 249 231 217 205 195 186 180 177 177 177 177 178 181 187 193 193 189 183 173 173 194 203 193 184 181 185 193 201 207 213 228 272 295 307 324 334 335 335 340 346 350 348 339 330 345 55 157 197 215 283 312 314 287 255 242 236 233 236 213 122 19 350 346 341 332 325 321 317 311 306 301 295 290 294 301 305 314 336 354
281 271 270 272 270 267 262 253 238 220 202 187 175 169 168 171 173 173 175 181 188 193 195 192 187 185 186 189 196 188 180 184 192 199 200 198 192 182 181 245 288 324 346 350 344 339 344 352 360 3 355 350 10 35 2 291 264 239 224 206 194 213 235 256 282 237 287 355 357 346 340 336 328 321 313 306 300 294 287 282 280 282 286 290 302 320 331
283 270 270 270 262 256 252 243 223 200 183 173 170 175 179 181 182 182 185 191 195 197 200 199 197 202 203 199 198 196 196 202 208 207 196 176 151 130 124 195 355 5 5 360 351 360 16 24 23 15 1 348 355 44 44 16 344 232 205 182 154 143 256 307 345 345 345 349 347 343 342 338 329 320 311 301 296 295 296 301 312 325 332 342 6 347 348
284 269 268 263 253 245 237 218 197 188 187 189 191 190 189 190 192 191 190 193 195 199 205 206 204 207 209 204 199 200 202 203 193 168 142 124 120 124 132 102 56 34 34 51 61 61 61 54 39 25 15 3 10 60 77 85 94 100 111 102 53 10 329 324 334 338 340 344 345 345 344 341 334 330 329 325 326 337 352 14 38 63 87 98 100 96 82
276 259 248 239 234 229 215 196 186 186 189 194 196 195 192 189 186 185 189 196 199 202 206 209 212 214 209 199 189 185 182 157 122 113 108 102 107 122 118 97 81 71 70 68 60 57 60 51 33 29 38 37 35 56 69 78 79 39 346 330 330 329 324 327 331 332 336 341 343 344 345 348 355 10 24 33 41 46 55 66 74 82 87 84 79 76 71
254 224 203 197 201 203 194 184 179 177 179 181 184 185 182 178 179 186 193 201 205 207 205 204 209 211 201 188 177 167 147 123 111 107 101 91 92 103 107 105 96 82 71 63 54 49 50 46 36 46 74 75 359 324 330 333 327 323 321 321 324 327 330 331 333 335 338 341 343 350 1 20 49 65 63 63 66 67 66 71 77 77 69 62 59 55 50
208 185 173 167 163 170 175 171 166 162 161 160 156 154 157 163 176 193 205 214 221 219 203 191 194 197 188 178 167 148 132 123 116 111 104 98 99 106 116 116 105 84 67 61 55 49 46 45 44 49 57 45 342 294 305 312 311 312 316 319 321 325 328 329 330 335 340 343 351 13 49 74 81 79 76 75 73 70 66 64 64 61 55 49 44 39 32
105 125 134 136 132 135 163 165 157 149 147 145 141 149 167 184 198 213 224 227 221 211 199 193 190 184 174 167 158 142 134 129 124 121 122 125 128 123 111 105 96 81 70 63 54 42 32 26 23 19 18 19 18 358 338 331 324 320 320 320 320 320 321 322 325 331 339 347 15 73 97 95 82 74 71 70 68 65 60 55 50 46 40 30 22 17 12
84 106 114 122 133 151 167 166 155 149 151 162 178 192 200 204 204 210 217 212 195 186 186 186 180 170 158 144 130 129 131 130 131 139 150 153 145 130 114 98 86 79 76 63 34 21 16 10 9 19 34 33 24 12 359 350 345 339 334 330 326 323 319 320 327 334 342 12 94 102 96 85 74 65 60 58 56 52 45 38 32 25 18 8 359 353 349
312 146 140 137 144 161 178 191 196 195 200 199 187 182 186 191 190 185 182 179 174 169 163 158 159 158 150 137 126 126 132 136 137 141 150 150 141 133 125 110 90 78 68 45 28 27 28 25 25 35 36 26 18 10 3 357 354 350 346 341 332 320 316 322 332 345 49 98 104 100 88 74 61 49 42 39 34 27 19 11 5 357 351 343 336 331 328
219 171 172 177 181 191 209 228 233 219 201 189 179 173 174 178 176 168 160 159 163 161 151 142 141 145 149 147 142 140 149 157 155 138 116 110 117 121 119 108 90 67 48 40 37 37 40 41 34 21 14 11 9 4 360 357 355 354 355 356 348 308 265 182 97 91 93 92 95 94 74 43 28 20 15 11 9 5 357 350 343 337 329 323 318 316 315
173 179 194 197 186 185 193 198 193 187 185 187 186 180 173 170 169 166 160 159 162 163 159 153 146 143 147 153 149 144 150 160 161 155 147 140 135 128 116 102 88 66 52 49 48 42 39 36 24 10 5 4 2 360 358 358 359 359 3 24 50 76 124 133 122 109 98 88 76 51 19 4 357 354 352 349 347 343 338 334 330 324 317 314 314 313 314
146 162 169 168 169 173 177 181 182 180 177 180 187 185 177 173 173 172 169 169 174 176 172 166 159 153 153 156 156 149 144 152 161 171 178 179 174 161 137 109 89 66 47 33 16 2 7 9 4 359 355 352 354 356 357 356 358 3 11 34 57 78 105 119 113 101 88 70 50 29 9 354 344 340 340 339 336 334 333 332 328 323 318 317 318 319 329
145 156 158 161 164 163 164 167 169 167 168 174 182 189 187 184 184 185 182 182 186 188 184 176 170 163 158 157 159 160 162 169 185 204 209 205 204 202 190 167 134 76 44 21 360 345 344 347 347 344 340 338 346 355 354 349 352 10 25 33 48 65 87 99 95 81 60 40 30 24 16 4 353 349 347 344 343 344 344 340 333 326 322 318 317 325 58
141 146 145 143 141 142 147 153 157 162 172 176 178 189 219 222 220 215 205 194 190 191 187 178 170 165 161 161 164 171 181 196 214 229 228 222 218 218 222 239 248 233 219 352 345 336 329 325 325 327 326 328 341 354 352 341 332 341 15 27 32 35 39 46 49 43 33 26 25 27 28 23 14 8 4 2 360 360 360 356 350 341 320 266 241 233 213
125 128 124 120 121 127 137 143 145 160 186 199 216 243 254 247 236 228 217 204 198 195 189 180 172 169 171 176 180 185 194 207 221 232 232 227 225 226 233 248 258 253 238 236 272 301 301 295 295 308 316 322 337 351 352 338 312 289 284 310 340 347 345 339 338 354 10 14 16 20 24 23 18 13 10 8 7 6 4 1 2 9 13 258 225 220 207
110 105 95 92 97 105 121 204 242 244 238 241 256 265 260 249 241 233 221 210 205 204 200 195 190 186 187 191 195 198 203 213 225 232 229 222 225 235 246 255 265 266 259 249 250 264 274 279 288 304 313 318 326 340 348 340 310 282 278 288 304 318 327 325 316 317 338 353 2 9 13 11 9 7 7 6 6 7 4 359 354 356 7 357 267 246 247